Regional Weather Roundup
Issued by NWS

Home | Current Version | Previous Version | Graphics & Text | Print | Product List | Glossary On
Versions: 1 2 3 4 5 6 7 8 9 10 11 12 13 14 15 16 17 18 19 20 21 22 23 24 25 26 27 28 29 30 31 32 33 34 35 36 37 38 39 40 41 42 43 44 45 46 47 48 49 50
553
ASUS43 KDMX 291306
RWRIA

WEATHER ROUNDUP FOR IOWA
NATIONAL WEATHER SERVICE DES MOINES IA
800 AM CDT WED MAR 29 2017

NOTE: "FAIR" INDICATES FEW OR NO CLOUDS BELOW 12,000 FEET WITH NO
SIGNIFICANT WEATHER AND/OR OBSTRUCTIONS TO VISIBILITY.

* - THESE STATIONS ARE NOT NWS STATIONS...THUS NOT UNDER NWS
QUALITY CONTROL.  THEY ALSO DO NOT REPORT WEATHER SUCH
AS PRECIPITATION OR FOG.

IAZ001>003-012>014-020>022-031>034-043>046-291400-
   NORTHWEST IOWA

CITY           SKY/WX    TMP DP  RH WIND       PRES   REMARKS
CARROLL *      LGT RAIN  43  43 100 E16       30.08F
CHEROKEE *     RAIN      43  43  99 E7        30.12R
DENISON *      LGT RAIN  43  41  93 E18G24    30.07S
LE MARS *      LGT RAIN  45  45 100 NE9       30.13R
ORANGE CITY *  LGT RAIN  45  43  93 E8        30.13R
SHELDON *      CLOUDY    41  39  93 NE8       30.13R
SIOUX CITY     LGT RAIN  45  44  97 NE12      30.10R FOG
SPENCER        CLOUDY    43  41  93 NE7       30.14S
STORM LAKE *   LGT RAIN  43  41  93 E14       30.11R
$$

IAZ055>058-069>071-079>083-090>094-291400-
   SOUTHWEST IOWA

CITY           SKY/WX    TMP DP  RH WIND       PRES   REMARKS
ATLANTIC *     LGT RAIN  43  43 100 NE15      30.02S
AUDUBON *      LGT RAIN  43  39  87 E18       30.05F
CLARINDA *     CLOUDY    46  46 100 E15G21    29.99R FOG
COUNCIL BLFS * MIX PCPN  45  45 100 NE16      30.00F
CRESTON *      LGT RAIN  43  43 100 E18       30.02R
HARLAN  *      LGT RAIN  43  43 100 NE14G22   30.06S
LAMONI         LGT RAIN  44  43  96 E15G23    30.00R
RED OAK *      LGT RAIN  46  45  93 NE17      29.99R
SHENANDOAH *   LGT RAIN  46  45  93 NE15G22   29.99R
$$

IAZ047>049-059>061-072>074-084-291400-
   CENTRAL IOWA

CITY           SKY/WX    TMP DP  RH WIND       PRES   REMARKS
AMES           CLOUDY    43  41  93 NE8       30.11F
ANKENY *       MIX PCPN  43  41  93 E14       30.10F
BOONE *        CLOUDY    43  43 100 NE10      30.09F
CHARITON *     LGT RAIN  43  41  93 E20       30.04F
DES MOINES     LGT RAIN  44  41  89 E16       30.06F FOG
GRINNELL*      CLOUDY    40  38  91 E14G21    30.15S FOG     WCI  32
KNOXVILLE *    MIX PCPN  43  41  93 E16       30.05F
MARSHALLTOWN   CLOUDY    40  38  93 E15       30.14S FOG     WCI  32
NEWTON *       CLOUDY    41  39  93 E17       30.09F FOG
PELLA *        LGT RAIN  41  40  93 E12G22    30.11F
PERRY *        RAIN      43  41  93 NE12      30.08F
$$

IAZ004>006-015-016-023>025-035-036-291400-
   NORTH CENTRAL IOWA

CITY           SKY/WX    TMP DP  RH WIND       PRES   REMARKS
ALGONA *       MIX PCPN  45  41  87 E8        30.16R
CLARION *      CLOUDY    43  43 100 NE16      30.13F
ESTHERVILLE    CLOUDY    40  39  97 E5        30.16S
FORT DODGE *   CLOUDY    43  37  81 E9        30.13S
MASON CITY     CLOUDY    42  36  79 E10       30.19R
FOREST CITY *  CLOUDY    41  36  81 E8        30.18R
WEBSTER CITY * CLOUDY    43  41  93 NE10      30.11S
IOWA FALLS *   CLOUDY    42  39  89 E14       30.17S
$$

IAZ007>011-017>019-026>030-037>042-050>054-066-291400-
   NORTHEAST IOWA

CITY           SKY/WX    TMP DP  RH WIND       PRES   REMARKS
CEDAR RAPIDS   CLOUDY    40  40 100 E9        30.16R FOG     WCI  34
CHARLES CITY * CLOUDY    41  37  87 E12       30.19R
CLINTON *      CLOUDY    40  38  93 E16       30.19S FOG     WCI  31
DECORAH *      CLOUDY    39  37  93 E9        30.20R WCI  33
DUBUQUE        CLOUDY    39  36  89 E10       30.18F WCI  32
MONTICELLO *   CLOUDY    41  37  87 E10G16    30.17S
OELWEIN *      CLOUDY    39  39 100 E10       30.18S WCI  32
WATERLOO       CLOUDY    40  36  86 E7        30.18R
$$

IAZ064-065-067-068-078-291400-
   EAST CENTRAL IOWA

CITY           SKY/WX    TMP DP  RH WIND       PRES   REMARKS
DAVENPORT      CLOUDY    40  38  93 E15       30.15F FOG     WCI  32
IOWA CITY      CLOUDY    44  40  85 E7        30.19R FOG
MUSCATINE *    CLOUDY    45  41  87 E12G18    30.17R
QUAD CITIES    CLOUDY    42  38  85 E13       30.14F FOG
$$

IAZ062-063-075>077-085>089-095>099-291400-
   SOUTHEAST IOWA

CITY           SKY/WX    TMP DP  RH WIND       PRES   REMARKS
BURLINGTON     CLOUDY    44  42  93 E13       30.11R
FAIRFIELD *    CLOUDY    41  39  93 E9        30.13S FOG
FORT MADISON * CLOUDY    43  41  93 E7        30.15R FOG
KEOKUK *       CLOUDY    43  41  93 E10       30.13R
OSKALOOSA *    LGT RAIN  40  38  94 E14       30.12F WCI  32
CENTERVILLE *  HVY RAIN  41  41 100 E20G32    30.02F
OTTUMWA        LGT RAIN  41  40  96 E15       30.12R
WASHINGTON *   CLOUDY    43  43 100 E7        30.18R FOG
$$

ABBREVIATIONS USED IN REMARKS
   TC - TEMPERATURES IN CELSIUS
  WCI - WIND CHILL INDEX
   HX - HEAT INDEX
  VSB - VISIBILITY
$$





USA.gov is the U.S. government's official web portal to all federal, state and local government web resources and services.